This is the latest recevied weather packets stored in our database for station/object W9GWP. If no packets are shown the sender has not sent any weather packets the latest 10 day(s).
| Time | Temp. | Humidity | Pressure | Rain* | Wind** | Luminosity | Snow |
|---|---|---|---|---|---|---|---|
| 1778006659 | 13.33° C | 39% | 1038 hPa | 0 mm | - | 301 W/m² | - |
| 1778005755 | 13.33° C | 35% | 1038 hPa | 0 mm | - | 292 W/m² | - |
| 1778004852 | 13.89° C | 37% | 1037.9 hPa | 0 mm | - | 576 W/m² | - |
| 1778003948 | 13.33° C | 36% | 1037.8 hPa | 0 mm | - | 747 W/m² | - |
| 1778003044 | 13.33° C | 37% | 1037.8 hPa | 0 mm | - | 426 W/m² | - |
| 1778002139 | 12.22° C | 37% | 1037.9 hPa | 0 mm | - | 477 W/m² | - |
| 1778001240 | 11.67° C | 39% | 1037.7 hPa | 0 mm | - | 324 W/m² | - |
| 1778000334 | 12.22° C | 39% | 1038.1 hPa | 0 mm | - | 321 W/m² | - |
| 1777999435 | 11.67° C | 41% | 1037.7 hPa | 0 mm | - | 311 W/m² | - |
| 1777998530 | 11.67° C | 42% | 1037.7 hPa | 0 mm | - | 307 W/m² | - |
| 1777997625 | 11.11° C | 42% | 1037.8 hPa | 0 mm | - | 319 W/m² | - |
| 1777996723 | 11.11° C | 44% | 1037.7 hPa | 0 mm | - | 253 W/m² | - |
| 1777995818 | 10.56° C | 44% | 1037.7 hPa | 0 mm | - | 280 W/m² | - |
| 1777994914 | 10.56° C | 45% | 1037.9 hPa | 0 mm | - | 221 W/m² | - |
| 1777994014 | 10° C | 43% | 1037.8 hPa | 0 mm | - | 221 W/m² | - |
| 1777993114 | 10° C | 48% | 1038.1 hPa | 0 mm | - | 147 W/m² | - |
| 1777992215 | 10.56° C | 49% | 1037.9 hPa | 0 mm | - | 177 W/m² | - |
| 1777991312 | 10.56° C | 48% | 1037.8 hPa | 0 mm | - | 290 W/m² | - |
| 1777990409 | 10° C | 48% | 1038 hPa | 0 mm | - | 177 W/m² | - |
| 1777989506 | 9.44° C | 49% | 1038.4 hPa | 0 mm | - | 127 W/m² | - |
| 1777988601 | 9.44° C | 47% | 1038.3 hPa | 0 mm | - | 117 W/m² | - |
| 1777987696 | 9.44° C | 49% | 1038.3 hPa | 0 mm | - | 128 W/m² | - |
| 1777986793 | 9.44° C | 51% | 1038 hPa | 0 mm | - | 97 W/m² | - |
| 1777985892 | 8.89° C | 51% | 1037.7 hPa | 0 mm | - | 102 W/m² | - |
| 1777984988 | 9.44° C | 53% | 1037.5 hPa | 0 mm | - | 86 W/m² | - |
* Rain latest hour (hover to see other rain measurements)
** Current wind speed in m/s (hover to see current wind gust speed)